Location: ?????????
(38.0736°N, 23.2119°E)
Time: 08:57:14
(UTC+00:00)

USA 245 - Pass Details

Date: 18 April 2024
Orbit: 266 x 1013 km, 97.9° (Epoch: 17 May)

Event Time Altitude Azimuth Distance (km) Brightness Sun altitude
Exits shadow 19:12:41 46° 83° (E) 1,066 4.4 -23.1°
Maximum altitude 19:12:55 47° 74° (ENE) 1,055 4.4 -23.2°
Drops below altitude 10° 19:17:31 10° 2° (N) 2,155 6.8 -23.9°
Sets 19:19:36 0° 356° (N) 2,956 7.6 -24.2°
